Starlink 11405

operational
NORAD ID: 63008 Int'l Des: 2025-032 Owner: SPXS Country: US Constellation: starlink
LEOCIRCULAR

Über Starlink 11405

Beschreibung wird geladen...

Live-Position

3D-Globus wird geladen...

Nächste Überflüge

Höhenverlauf

Altitude vs Time

uPlot chart will show altitude changes over time

Zweizeiliger Elementsatz

1 63008U 25032D 25260.12433145 .00178703 00000-0 13642-2 0 9991
2 63008 42.9998 161.7920 0001761 268.0018 92.0648 15.70878990 34769
Epoch: 17. Sept. 2025 • Age: 12 hours

Aktueller Status

Höhe 362.0 km
Geschwindigkeit 7.69 km/s
Subsatellitenpunkt -27.08°S, 156.07°E
Startdatum 15. Feb. 2025
Alter 0.5 years
Typ internet

Technische Details

Klassifizierung Payload
Masse 960.00 kg
Trockenmasse 910.00 kg
Gesamtmasse 960.00 kg
Länge 0.30 m
Durchmesser 4.10 m
Spannweite 29.00 m
Form Box + pan
Hersteller SPXS
Bus-Typ Starlink V2MD
Phasenstatus In Orbit
Besitzer/Staat SPXS/US

Große Konstellationen

Loading constellations...